{"data":{"norad_id":1512,"epoch":"2026-05-25T04:06:15.238080Z","epoch_age_seconds":60568,"freshness":"FRESH","line1":"1 01512U 65065E   26145.17100970  .00000015  00000+0  14240-4 0  9994","line2":"2 01512  90.0003 212.5904 0068093 314.4308  72.4724 13.33592679956986","mean_motion":13.33592679,"eccentricity":0.0068093,"inclination_deg":90.0003,"raan_deg":212.5904,"arg_perigee_deg":314.4308,"mean_anomaly_deg":72.4724,"bstar":1.424e-5,"rev_number":95698,"period_min":107.97899708626,"perigee_km":1082.0952919879,"apogee_km":1184.3897652363,"semimajor_km":7511.3795286121,"source":"CELESTRAK","updated_at":"2026-05-25T13:38:25.284654Z"}}